Tracking 18980 objects as of 23-Feb-2018
HD Live streaming from Space Station
objects crossing your sky now

PSLV R/B

Track PSLV R/B now!
10-day predictions


NORAD ID: 25759
Int'l Code: 1999-029D
Perigee: 706.6 km
Apogee: 733.9 km
Inclination: 98.4 °
Period: 99.0 minutes
Semi major axis: 7091 km
RCS: 6.2552 m2 (large)
Launch date: May 26, 1999
Source: India (IND)
Launch site: SRIHARIKOTA (SRI)

Note: This is a ROCKET BODY
aabbcc
Your satellite tracking list
Your tracking list is empty




NASA's NSSDC Master Catalog

Two Line Element Set (TLE):
1 25759U 99029D   18053.41111170  .00000017  00000-0  15155-4 0  9999
2 25759  98.4156 339.7249 0019249 183.2418 287.2499 14.53835473994019
Source of the keplerian elements: AFSPC